Regional Weather Roundup
Issued by NWS Upton, NY

Current Version | Previous Version | Graphics & Text | Print | Product List | Glossary Off
Versions: 1 2 3 4 5 6 7 8 9 10 11 12 13 14 15 16 17 18 19 20 21 22 23 24 25 26 27 28 29 30 31 32 33 34 35 36 37 38 39 40 41 42 43 44 45 46 47 48 49 50
000 ASUS41 KOKX 221509 RWROKX REGIONAL WEATHER ROUNDUP NATIONAL WEATHER SERVICE NEW YORK NY 1100 AM EDT MON MAY 22 2017 NOTE: "FAIR" INDICATES FEW OR NO CLOUDS BELOW 12,000 FEET WITH NO SIGNIFICANT WEATHER AND/OR OBSTRUCTIONS TO VISIBILITY. NYZ071-072-176-178-NJZ106-104-221600- NEW YORK CITY METRO AREA CITY SKY/WX TMP DP RH WIND PRES REMARKS Central Park LGT RAIN 55 54 96 VRB6 30.14F FOG Wall St Helipt CLOUDY 55 54 94 NE10 30.13F Bronx Bot Gard N/A 54 52 94 E6 30.12F LaGuardia APRT LGT RAIN 57 53 86 SE12 30.12F FOG Kennedy INTL RAIN 56 55 97 E10 30.14F FOG Breezy Point N/A 54 N/A N/A E10G16 N/A Newark/Liberty LGT RAIN 55 54 96 E6 30.12F FOG Teterboro LGT RAIN 55 54 96 SE6 30.11F FOG $$ NYZ177-179-078>081-221600- LONG ISLAND NEW YORK CITY SKY/WX TMP DP RH WIND PRES REMARKS Jones Beach N/A 54 N/A N/A E10G16 N/A Matinecock PT NOT AVBL Farmingdale LGT RAIN 55 54 96 SE13 30.13F FOG MacArthur/ISP LGT RAIN 55 54 96 SE12 30.14F FOG Shirley LGT RAIN 56 54 93 SE9 30.16F Mt Sinai Harb N/A 55 N/A N/A S6 N/A Westhampton CLOUDY 56 49 77 S9 30.17F East Hampton CLOUDY 55 48 79 SE12 30.15F Montauk N/A 56 51 84 VRB7 30.18F $$ NYZ052-065-067-221600- HUDSON VALLEY CITY SKY/WX TMP DP RH WIND PRES REMARKS White Plains LGT RAIN 54 52 93 SE9 30.12F FOG Larchmont Harb N/A 54 N/A N/A E8 N/A Croton O-T Hud N/A 55 N/A N/A SE3G9 N/A Newburgh CLOUDY 55 52 88 SE6 30.12F Montgomery CLOUDY 57 50 77 SE7 30.10F Poughkeepsie CLOUDY 57 47 69 VRB6 30.10F Albany CLOUDY 57 45 64 S10G21 30.06F $$ NJZ001-105-106-008-010-013-015-019>022-104-221600- NEW JERSEY CITY SKY/WX TMP DP RH WIND PRES REMARKS Newark/Liberty LGT RAIN 55 54 96 E6 30.12F FOG Teterboro LGT RAIN 55 54 96 SE6 30.11F FOG Caldwell LGT RAIN 57 53 86 E5 30.12F FOG Somerville CLOUDY 56 55 97 CALM 30.09F FOG Linden CLOUDY 55 53 93 SE8 30.12F FOG Perth Amboy N/A 54 N/A N/A E12 N/A Sussex CLOUDY 57 52 83 VRB5 30.11F Andover N/A 54 51 90 VRB5 30.10F Trenton LGT RAIN 56 56 100 E6 30.09F Millville HVY RAIN 59 59 100 E6 30.07F FOG Atlantic City LGT RAIN 62 60 93 SE3 30.08F Wrightstown HVY RAIN 57 57 100 SE9 30.06F FOG Toms River RAIN 58 58 100 CALM 30.11F FOG Belmar RAIN 57 56 96 SE9 30.11F FOG $$ PAZ047>061-062-071-221600- EASTERN PENNSYLVANIA CITY SKY/WX TMP DP RH WIND PRES REMARKS Philadelphia HVY RAIN 59 57 93 E3 30.08F FOG Allentown CLOUDY 58 52 80 E6 30.09F Scranton CLOUDY 62 54 74 CALM 30.04F $$ CTZ002-004>006-009-010-012-RIZ004-006-007-MAZ004-011-015-221600- SOUTHERN NEW ENGLAND IN CT CITY SKY/WX TMP DP RH WIND PRES REMARKS Bradley INTL CLOUDY 56 42 59 S12 30.15F Hartford CLOUDY 55 47 74 S9 30.15F Danbury CLOUDY 55 50 83 SE7 30.13F Wtrbury/Oxford CLOUDY 54 45 71 S12 30.16F Bridgeport LGT RAIN 57 51 80 SE9 30.14F Meriden CLOUDY 56 48 74 S8 30.15F New Haven CLOUDY 57 50 77 S10 30.15F Chester CLOUDY 55 48 76 SE8G15 30.16F Groton CLOUDY 56 49 77 SE10 30.17F Wilimantic CLOUDY 55 46 71 VRB6 30.17F IN RI CITY SKY/WX TMP DP RH WIND PRES REMARKS Providence CLOUDY 56 47 71 S9 30.19F Block Island CLOUDY 54 49 83 S13 30.18F Westerly CLOUDY 56 49 77 S8 30.18F IN MA CITY SKY/WX TMP DP RH WIND PRES REMARKS Boston LGT RAIN 52 40 63 S8G18 30.21S Worcester LGT RAIN 46 41 81 SW14 30.17F Westfield CLOUDY 54 48 80 S5 30.13F Provincetown CLOUDY 55 41 59 S7 30.21F Nantucket CLOUDY 53 42 66 SE13 30.21F $$ ANZ330-335-338-340-345-350-353-355-221600- COASTAL MARINE OBSERVATIONS STATION/POSITION TIME SKY/WX TEMP WIND PRES VSBY WAVE AIR SEA DIR/SP/G HT/PER (UTC) (F) (DEG/KT/KT) (MB) (MI) (FT/S) NY HARB ENTRANCE 1450 55 56 120/ 16/ 19 1019.5 2/ 3 20 S FIRE ISLAND 1450 54 54 100/ 14/ 16 1019.8 3/ 3 GREAT SOUTH BAY 1430 55 65 130/ 14/ 16 N/A 23 SSW MONTAUK P 1350 54 54 1022.4 3/ 4 15 E BARNEGAT LI 1430 56 N/A 4/ 5 HUDSON CANYON 1450 56 53 130/ 10/ 10 1020.3 3/ 5 KINGS POINT 1448 54 56 180/ 4/ 5 1020.1 EXECUTION ROCKS 1445 55 N/A CENTRAL LI SOUND 1400 55 150/ 10/ 12 N/A 0 EASTERN LI SOUND NOT AVBL ROBBINS REEF 1448 55 110/ 13/ 15 1020.3 $$ >>>>>>>>>>>>>>>>>>>>>>>>>>>> KEY <<<<<<<<<<<<<<<<<<<<<<<<<<< > < > SKY/WX - Sky Condition/Present Weather < > TMP - Temperature in Fahrenheit < > DP - Dew Point in Fahrenheit < > RH - Relative Humidity in Percent < > WIND - Direction (from) and Speed in MPH < > PRES - Mean Sea Level Pressure (inches of Hg) < > WCI - Wind Chill Index < > VSB - VISIBILITY IN MILES < > HX - HEAT INDEX < > TC - TEMPERATURE IN CELSIUS < > VRB - VARIABLE WIND DIRECTION < > < >>>>>>>>>>>>>>>>>>>>>>>>>>>> KEY <<<<<<<<<<<<<<<<<<<<<<<<<<<

USA.gov is the U.S. government's official web portal to all federal, state and local government web resources and services.